THOR ABLESTAR DEB, 561

Orbit data source: Space-Track

THOR ABLESTAR DEB, 561 is space debris in LEO originally from a launch on Thu, 29 Jun 1961 UTC launched from the Air Force Eastern Test Range (AFETR). Debris objects in space refer to the collection of defunct objects orbiting the Earth. Examples of debris include non-operational satellites, rocket bodies, and fragments generated from explosions, collisions, or faulty payload assembly.

Loading next visibility...
Identifier
561, 1961-015GT
Orbit
LEO
Country
Flag of USUS
Related business
Manufacturer
Unknown
Mission
Spacecraft
Bus & Motor
Unknown
Mass
Unknown
Launch date (UTC)
1961-06-29 (65 years ago)
Launch vehicle
Unknown
Launch site
Air Force Eastern Test Range (AFETR)
Object type
Payload
Rocket body
Debris
Shape & HBR
Unknown shape, 0.1 m
Radar Cross Section
Medium (>0.1 m² and <1 m²)

Expand to show TLE details & history
Last TLE update: 11 hours ago

TLE from 11 hours ago
0 THOR ABLESTAR DEB
1 00561U 61015GT  26258.49630847  .00000652  00000-0  25590-2 0  9995
2 00561  67.7557 170.3768 0630145 236.4484 306.6110 12.41560468952339
Epoch: 2026-09-15T11:54Z
TLE epoch observation values (Epoch: 2026-09-15T11:54:41.051Z)
Latitude
2.70699°
Longitude
176.14193°
Altitude
1,226.921 km
Speed
7.367 km/s
True Right ascension
23h 17m 05s
True Declination
2° 41' 31"
Sunlit
Object was in full shadow at epoch
Visualization orbit readout
Latitude
Unknown
Longitude
Unknown
Altitude
Unknown
Speed
Unknown
Apparent Right ascension
Unknown
Apparent Declination
Unknown
Sunlit
N/A
Visualization observer readout
Local Sidereal Time
15:52:36
Azimuth
Unknown
Elevation
Unknown
Doppler factor
Unknown
Orbital elements
Apogee altitude
1,994.733 km
Perigee altitude
1,002.061 km
Semi-major axis
7,876.534 km
Eccentricity
0.06301
Inclination
67.7557°
RAAN
170.3768°
Arg. of periapsis
236.4484°
True anomaly
300.54107°
Mean anomaly
306.611°
Eccentric anomaly
303.6039°
Mean motion
3.10485 °/min
Orbital period
115.95 mins
BSTAR
0.002559
Loading maneuver chart data...
Computing Atmospheric mass density...

Documentation

Showing up to 5 results
|